Regional Weather Roundup
Issued by NWS Jackson, KY

Home | Current Version | Previous Version | Text Only | Print | Product List | Glossary Off
Versions: 1 2 3 4 5 6 7 8 9 10 11 12 13 14 15 16 17 18 19 20 21 22 23 24 25 26 27 28 29 30 31 32 33 34 35 36 37 38 39 40 41 42 43 44 45 46 47 48 49 50

000
ASUS43 KJKL 100610
RWRJKL

EAST KENTUCKY HOURLY WEATHER ROUNDUP
NATIONAL WEATHER SERVICE JACKSON KY
100 AM EST WED FEB 10 2016

NOTE: "FAIR" INDICATES FEW OR NO CLOUDS BELOW 12,000 FEET WITH
NO SIGNIFICANT WEATHER AND/OR OBSTRUCTIONS TO VISIBILITY.

* THESE REPORTS ARE NOT UNDER NWS QUALITY CONTROL AND MAY NOT
  REPORT WEATHER SUCH AS PRECIPITATION AND FOG.

KYZ079-080-083-085-087-088-110-112-115-119-120-100700
...EASTERN KENTUCKY...

CITY           SKY/WX    TMP DP  RH WIND       PRES   REMARKS
JACKSON        CLOUDY    19  10  68 W10G20    29.91R WCI   7
6HR MIN TEMP:  19; 6HR MAX TEMP:  22; 6HR PCP:  0.01;

LONDON         SNOW      18  14  84 W9        29.96S VSB 1/2 WCI   7
6HR MIN TEMP:  19; 6HR MAX TEMP:  22; 6HR PCP: TRACE;

SOMERSET*      MOCLDY    18  10  73 W9        30.02S WCI   6
MONTICELLO*    FLURRIES  18  12  77 W15G22    30.02F WCI   4
6HR MIN TEMP:  17; 6HR MAX TEMP:  23; 6HR PCP: TRACE;

WILLIAMSBURG*  CLOUDY    19  16  86 CALM      29.98S
MIDDLESBORO*   CLOUDY    21  13  70 W5        29.97S WCI  15
6HR MIN TEMP:  21; 6HR MAX TEMP:  24;

HARLAN APT*    CLOUDY    19  12  73 W9        29.92S WCI   9
HAZARD APT*    CLOUDY   N/A N/A N/A W15       29.93R
BLACK MTN*       N/A     10   9  92 CALM        N/A
BIG SANDY*     CLOUDY    22  16  77 W7        29.89F WCI  13
6HR MIN TEMP:  21; 6HR MAX TEMP:  24;

MOREHEAD APT*  CLOUDY    19  12  73 W7G15     29.95R WCI  10
$$

KYZ035-036-041-042-044-050-067-078-099-100700
...CENTRAL KENTUCKY...

CITY           SKY/WX    TMP DP  RH WIND       PRES   REMARKS
MT STERLING*   FLURRIES  19  14  79 NW10      29.96R WCI   8
DANVILLE*      FLURRIES  19  14  79 W9        29.99S WCI   9
RICHMOND*      CLEAR     18  12  79 W13       29.96F WCI   4
LEXINGTON      CLOUDY    17  11  77 W10       29.96S WCI   5
6HR MIN TEMP:  17; 6HR MAX TEMP:  22; 6HR PCP: TRACE;

$$

KYZ091>093-OHZ055-061-077-WVZ005-015-034-035-042-100700
...SOUTHERN OHIO/WEST VIRGINIA...

CITY           SKY/WX    TMP DP  RH WIND       PRES   REMARKS
COVINGTON      LGT SNOW  16  11  80 W9        29.92F WCI   4
COLUMBUS       FLURRIES  20  12  71 W15       29.83R WCI   6
DAYTON         CLOUDY    15   9  76 W16       29.87S WCI  -1
WILMINGTON     CLOUDY    16  10  77 W17       29.87R WCI   0
HUNTINGTON     LGT SNOW  22  17  81 W7        29.89S WCI  13
CHARLESTON     LGT SNOW  23  16  74 W12G21    29.86S WCI  12
PINEVILLE*     FLURRIES  21  14  73 MISG      29.88S
BECKLEY        LGT SNOW  17  12  80 W10       29.76R WCI   5
$$

VAZ002-007-008-TNZ017-027-036-066-071-100700
...SOUTHWEST VIRGINIA/EAST TENNESSEE...

CITY           SKY/WX    TMP DP  RH WIND       PRES   REMARKS
BRISTOL        LGT SNOW  21  17  84 SW7       29.89F FOG     WCI  12
KNOXVILLE      FLURRIES  22  10  60 NW14      29.99F WCI   9
OAK RIDGE      CLOUDY    23  12  62 VRB6      30.01S WCI  16
CROSSVILLE     LGT SNOW  17  11  77 W10       29.95F WCI   5
NASHVILLE      LGT SNOW  21  15  78 W3        30.10S
$$

...KEY TO REMARKS...
VSB - VISIBILITY IN MILES
WCI - WIND CHILL INDEX
HX  - HEAT INDEX

$$



USA.gov is the U.S. government's official web portal to all federal, state and local government web resources and services.